EDT,Max TemperatureF,Mean TemperatureF,Min TemperatureF,Max Dew PointF,MeanDew PointF,Min DewpointF,Max Humidity, Mean Humidity, Min Humidity, Max Sea Level PressureIn, Mean Sea Level PressureIn, Min Sea Level PressureIn, Max VisibilityMiles, Mean VisibilityMiles, Min VisibilityMiles, Max Wind SpeedMPH, Mean Wind SpeedMPH, Max Gust SpeedMPH,PrecipitationIn, CloudCover, Events, WindDirDegrees
2014-5-1,49,46,43,43,39,36,86,74,61,29.89,29.85,29.81,10,10,8,21,11,29,T,7,Rain,231
2014-5-2,54,50,45,43,41,39,89,76,63,29.91,29.87,29.84,10,10,10,17,9,22,T,8,,240
2014-5-3,68,57,46,43,37,30,77,52,26,29.90,29.83,29.75,10,10,10,25,12,35,T,2,,255
2014-5-4,63,56,49,45,34,20,77,53,28,30.07,30.00,29.89,10,10,10,17,9,23,T,2,,352
2014-5-5,67,56,45,44,36,25,62,51,39,30.03,29.91,29.84,10,10,10,22,13,30,T,1,,76
2014-5-6,73,59,44,45,40,35,71,51,31,29.97,29.90,29.83,10,10,10,23,14,30,0.00,0,,90
2014-5-7,86,70,53,60,52,42,72,56,40,29.87,29.84,29.81,10,10,10,18,9,25,0.00,0,,155
2014-5-8,87,77,66,61,58,54,73,54,38,29.94,29.89,29.85,10,10,10,22,12,32,0.00,0,,200
2014-5-9,78,67,56,64,60,52,96,76,54,29.89,29.81,29.75,10,9,2,25,10,38,0.28,6,Rain-Thunderstorm,225
2014-5-10,73,61,49,55,45,33,93,59,23,30.00,29.94,29.89,10,10,10,15,4,19,0.00,0,,306
2014-5-11,83,69,54,64,58,42,100,75,50,30.03,29.97,29.88,10,8,2,31,9,44,1.83,4,Rain-Thunderstorm,185
2014-5-12,81,72,62,69,65,60,84,76,67,30.03,29.95,29.88,10,9,1,22,10,33,0.08,4,Rain-Thunderstorm,185
2014-5-13,73,63,52,67,59,48,90,83,76,30.15,30.00,29.89,10,9,6,20,9,24,0.06,8,Rain-Thunderstorm,278
2014-5-14,53,50,46,50,48,44,100,95,89,30.17,30.04,29.87,10,8,3,24,10,34,0.68,8,Rain,354
2014-5-15,52,47,42,45,42,38,100,83,66,30.07,29.93,29.81,10,7,2,22,11,31,0.10,7,Rain,318
2014-5-16,51,45,38,45,42,37,100,88,76,30.09,30.00,29.97,10,8,2,16,7,20,0.67,8,Rain-Thunderstorm,58
2014-5-17,56,47,38,41,38,33,100,73,46,30.25,30.16,30.09,10,9,4,14,5,19,0.03,5,,263
2014-5-18,64,50,35,42,38,35,100,68,36,30.32,30.26,30.23,10,9,6,9,2,13,0.00,0,,196
2014-5-19,70,55,40,45,41,39,93,63,33,30.28,30.17,30.01,10,10,10,17,8,25,0.00,0,,130
2014-5-20,81,71,60,63,58,45,78,65,52,30.06,29.93,29.87,10,10,10,18,9,24,0.00,4,,195
2014-5-21,85,76,66,70,65,61,93,74,55,29.92,29.87,29.82,10,10,7,18,9,24,0.06,3,Rain-Thunderstorm,251
2014-5-22,73,64,54,64,53,49,100,72,44,30.10,30.02,29.89,10,10,10,15,7,19,0.00,1,,353
2014-5-23,74,61,47,51,47,43,100,69,38,30.18,30.15,30.10,10,9,1,15,5,19,0.00,0,,25
2014-5-24,76,60,43,56,48,43,100,68,36,30.23,30.17,30.11,10,10,10,8,2,11,0.00,0,,15
2014-5-25,81,67,52,55,51,48,100,67,33,30.16,30.10,30.04,10,10,9,12,3,19,0.00,0,,148
2014-5-26,86,71,56,65,60,54,93,71,48,30.09,30.03,29.94,10,10,10,15,5,23,0.00,1,,227
2014-5-27,84,75,66,65,62,58,93,68,43,30.00,29.95,29.88,10,10,10,18,7,25,0.00,0,,249
2014-5-28,83,73,63,66,63,60,100,79,58,29.99,29.95,29.91,10,10,10,18,4,23,T,2,Thunderstorm,80
2014-5-29,83,74,65,66,64,62,100,76,51,30.07,30.03,29.98,10,7,4,15,8,20,0.00,4,,69
2014-5-30,82,72,61,61,53,49,81,56,31,30.16,30.10,30.06,10,10,10,17,9,21,0.00,0,,79
2014-5-31,85,72,58,57,53,51,78,55,32,30.19,30.12,30.06,10,10,10,15,5,22,0.00,0,,108